GFSSGP_250_rhum_159.txt.gz
RH
84 77 81 100 88 100 61 53 80 48 31 35 23 24 17 20 21 50 91 87 93 71 48 57 100 100 100 100 100 85 64 53 32 78 82 45 46 45 88 36 17 23 26 23 29 27 28 43 44
100 92 100 100 94 55 52 72 90 39 27 35 24 23 19 21 20 19 70 85 91 95 72 41 88 100 100 100 100 84 64 35 37 66 79 57 60 74 63 26 16 26 23 27 26 25 25 40 36
100 60 78 77 100 66 78 87 65 60 38 40 27 27 21 21 26 22 25 64 89 86 90 46 62 100 100 99 100 94 60 33 36 69 70 67 79 100 45 19 18 24 28 23 26 28 23 30 26
44 87 83 100 100 88 93 94 65 88 42 41 32 29 24 27 29 25 23 28 59 66 75 65 50 77 92 100 100 92 58 33 48 67 52 82 89 61 27 16 20 26 19 24 24 30 21 27 26
14 12 70 84 98 46 25 57 75 96 60 43 41 32 27 28 33 31 22 71 55 66 65 72 65 78 84 87 87 77 52 43 65 65 91 80 70 48 18 20 21 25 18 20 19 29 26 45 46
13 13 33 64 26 85 61 50 80 99 78 43 47 39 31 28 23 26 19 28 63 68 77 67 59 61 90 77 56 75 51 53 67 78 100 90 60 58 24 23 23 24 20 20 21 34 28 55 49
13 12 12 12 12 32 72 71 65 74 76 39 51 42 35 29 29 26 60 70 45 72 64 98 64 57 57 66 61 82 67 66 69 93 100 97 53 54 24 19 23 26 23 21 22 38 31 33 40
13 12 11 12 22 23 65 88 100 94 83 36 60 47 42 35 39 34 64 88 61 64 94 76 99 60 66 66 81 95 78 84 74 100 100 79 70 35 30 28 21 30 27 27 23 32 36 38 36
12 12 11 11 57 85 51 60 84 56 81 43 77 55 44 41 46 43 54 86 80 73 75 85 99 93 81 72 86 93 100 82 100 100 99 79 79 40 45 22 23 32 29 26 24 36 37 52 37
12 11 11 14 78 54 54 76 99 84 74 47 67 54 57 48 46 72 61 94 100 78 65 82 94 81 60 88 84 100 100 100 100 100 76 57 72 61 70 24 27 35 30 23 25 43 49 51 39
10 10 11 16 28 75 80 85 100 100 90 46 41 57 71 54 57 46 62 65 88 81 66 58 78 97 89 100 100 100 100 99 100 100 55 35 86 61 69 34 23 31 32 23 23 37 45 48 48
9 10 10 11 46 55 100 100 91 74 98 48 37 51 85 52 72 70 38 66 91 99 75 52 69 70 85 90 97 100 100 100 100 100 48 67 71 54 75 36 36 26 33 27 23 33 34 36 56
9 8 9 10 59 99 97 98 78 90 70 95 39 37 88 72 80 96 48 53 57 75 63 64 80 48 64 100 65 92 68 90 100 100 64 99 30 90 91 39 39 26 33 34 25 30 33 41 66
8 9 9 10 34 100 100 97 97 100 80 96 43 44 93 81 52 81 86 46 47 62 60 93 58 40 54 60 99 50 59 75 99 100 88 67 66 58 78 73 46 44 32 34 28 27 34 52 76
9 8 10 22 31 54 84 100 100 96 70 59 54 68 92 67 71 52 93 79 42 34 47 52 72 84 47 52 84 85 67 98 96 100 85 94 55 36 59 82 67 52 36 28 33 26 30 38 52
11 10 27 71 100 83 97 100 100 98 65 60 68 54 100 70 89 73 48 95 78 48 32 42 57 67 79 66 69 96 100 87 100 100 99 84 48 37 74 84 100 64 53 29 25 25 24 31 36
11 11 19 97 100 100 100 100 100 100 80 61 70 72 82 73 64 86 56 65 92 72 60 33 37 40 47 100 97 67 68 75 100 99 94 73 87 99 83 60 80 73 59 40 26 26 22 24 34
15 11 11 14 42 93 100 100 100 90 98 100 87 90 62 98 72 37 65 47 89 83 63 62 36 42 41 51 68 70 66 69 90 64 94 73 65 58 70 42 98 65 70 55 27 26 32 22 26
32 32 14 10 11 66 100 100 100 100 83 100 100 95 71 78 99 51 71 39 63 79 76 46 51 41 39 38 40 50 53 59 55 46 70 70 64 43 38 95 97 67 82 66 38 26 25 22 25
51 43 38 30 10 12 94 97 94 92 76 100 79 91 93 92 100 64 68 66 39 59 74 59 49 60 62 47 35 37 40 47 56 80 73 71 71 42 100 80 67 83 84 67 28 25 26 25 27
54 48 40 31 28 13 18 95 94 75 78 96 95 96 96 78 89 91 78 72 35 42 48 81 63 74 89 73 39 31 41 51 66 93 90 83 100 99 75 87 97 100 85 62 36 22 28 36 21
52 52 49 48 34 24 21 26 94 96 99 100 100 100 100 100 77 73 74 66 67 24 32 52 98 95 71 64 63 45 29 41 51 76 91 94 83 70 72 56 65 87 78 56 43 31 16 19 33
44 55 53 54 53 32 27 25 23 52 75 100 100 100 100 100 100 100 99 68 57 29 17 41 55 80 58 62 100 82 48 30 29 51 58 84 100 98 99 72 64 59 57 51 36 29 25 17 20
38 53 59 55 55 36 34 33 26 25 49 81 75 79 90 98 99 96 88 81 70 19 16 29 62 71 48 63 88 100 98 58 37 32 35 49 70 81 85 81 72 48 43 40 38 25 22 19 16
39 44 52 48 46 40 37 50 37 34 29 40 52 36 19 37 61 65 80 86 54 24 14 21 54 75 64 60 55 61 95 99 96 68 31 34 33 37 50 66 56 48 40 31 29 28 22 24 18
45 46 64 56 56 53 44 46 56 46 36 28 25 21 12 15 11 15 23 59 58 43 14 18 31 72 73 60 60 39 52 95 97 80 73 34 38 38 26 25 41 45 37 36 30 26 30 35 23
75 92 80 60 68 67 52 48 45 47 48 38 27 22 10 10 10 10 17 94 71 48 16 15 26 54 80 58 54 50 55 68 78 95 67 65 47 39 32 25 22 35 35 34 40 61 55 64 35
77 80 90 92 85 77 65 55 54 41 52 46 30 31 15 10 11 13 25 87 98 64 23 17 21 32 68 73 66 57 51 72 67 56 60 92 40 45 35 34 24 26 37 58 52 48 81 80 52
48 52 50 65 82 78 64 65 48 42 67 54 34 31 24 12 12 44 71 61 100 79 31 28 32 48 67 63 63 61 50 57 86 62 42 86 34 42 26 21 25 40 36 48 42 47 52 68 80
36 33 30 28 51 56 53 78 50 43 74 57 34 36 32 12 11 28 77 70 85 71 45 22 85 85 55 45 53 64 45 56 74 75 35 66 100 99 39 35 72 53 34 38 49 58 37 31 32

GFSSGP_250_rhum_162.txt.gz
RH
100 75 58 42 98 76 55 68 55 58 60 36 37 29 26 20 20 24 57 66 67 39 30 100 100 100 100 100 100 100 96 69 48 48 82 48 34 39 31 19 18 23 22 27 24 26 25 29 32
92 75 54 65 85 48 45 80 62 77 63 39 41 29 28 20 20 22 35 100 100 91 55 38 100 100 100 100 100 98 85 66 38 50 82 46 36 44 20 20 25 19 24 30 23 25 25 35 37
96 89 56 61 51 39 56 91 66 53 60 45 48 31 30 21 18 25 22 56 100 100 91 51 63 100 100 100 100 100 87 45 35 66 59 50 60 25 24 20 25 18 18 22 22 30 32 32 42
13 90 99 82 71 48 63 40 30 51 70 45 51 35 32 19 14 25 21 22 58 100 95 88 56 95 100 100 100 95 64 34 68 99 70 50 50 23 23 22 22 17 18 23 26 45 35 39 45
14 14 14 12 22 78 58 54 51 42 72 48 53 38 35 24 16 23 21 66 68 51 73 100 67 60 100 100 97 88 59 47 94 75 78 77 46 29 22 27 22 17 19 29 34 57 47 51 47
16 15 14 14 19 44 22 49 68 63 81 61 54 43 39 28 22 51 51 52 56 60 65 100 70 60 93 100 100 98 56 68 94 94 76 82 58 34 28 30 25 20 21 31 41 53 58 50 35
16 16 14 13 12 12 15 41 81 70 82 64 53 53 42 41 36 48 54 59 54 74 72 100 62 72 60 80 76 84 59 68 93 97 78 72 60 30 28 32 28 22 22 32 36 58 52 40 36
15 15 14 13 12 11 13 19 72 59 60 64 48 55 44 54 44 49 62 84 69 65 100 92 92 68 100 88 66 56 70 75 100 90 97 82 64 44 20 33 32 23 22 30 40 57 40 41 26
13 13 13 13 12 12 13 21 37 63 75 68 38 56 50 52 56 49 62 85 90 60 65 81 100 81 89 73 50 72 98 97 100 38 65 95 61 55 24 32 34 21 23 32 39 50 48 57 32
12 11 12 12 12 12 17 33 44 80 98 81 36 59 65 54 71 40 59 60 68 70 63 72 85 78 72 76 73 99 100 100 86 68 100 96 61 72 28 28 35 23 23 28 32 38 63 59 68
10 10 10 12 12 11 14 33 72 72 85 85 31 30 68 55 84 48 54 53 69 71 49 70 77 84 89 100 100 100 100 100 91 98 98 74 78 72 37 33 44 27 22 28 33 42 67 71 69
9 9 10 10 11 11 15 36 89 98 73 86 54 24 54 63 70 55 38 63 73 55 64 77 68 63 82 100 100 100 100 100 100 100 47 62 98 93 48 35 35 30 21 27 30 46 73 87 83
9 9 9 9 10 11 18 38 44 95 66 57 58 38 55 77 48 80 50 59 87 85 60 67 85 80 98 89 92 100 100 100 100 84 48 50 65 94 75 39 37 34 23 28 32 43 71 93 78
9 9 9 10 35 27 47 71 73 74 62 96 92 74 44 94 45 56 77 46 65 73 69 73 55 87 77 75 92 100 96 89 100 73 57 43 52 61 95 71 55 45 28 26 31 45 73 83 72
11 10 9 10 29 18 100 94 74 83 90 99 80 51 44 84 76 56 70 58 53 38 54 85 63 48 67 85 95 61 75 90 96 95 61 43 46 39 46 100 68 56 33 23 27 34 57 76 51
12 11 12 12 26 62 84 86 95 83 100 100 89 66 48 79 77 72 53 91 58 43 32 41 56 36 40 56 71 40 45 60 88 100 69 32 36 53 31 92 82 64 59 28 24 24 27 34 37
13 11 11 12 66 100 86 67 91 88 81 79 68 76 61 62 46 55 83 50 82 59 32 29 38 56 68 52 73 92 52 51 59 100 84 27 30 66 36 96 57 72 64 34 31 22 22 26 34
34 35 14 11 13 89 100 100 76 76 85 100 64 59 71 79 70 84 46 58 65 89 42 35 25 32 42 70 66 77 88 62 79 100 99 73 67 52 96 93 58 95 63 58 42 33 25 21 28
45 41 29 28 11 11 16 89 90 98 76 76 78 59 58 74 76 95 50 58 46 80 61 50 41 28 31 42 87 93 97 74 77 82 97 83 63 48 93 66 40 100 68 73 62 34 32 20 24
49 47 38 31 26 16 11 12 96 100 99 85 86 60 82 85 52 80 85 33 38 55 65 47 58 78 50 28 34 38 67 74 67 76 95 70 63 57 57 47 70 77 55 82 55 31 38 28 22
54 52 50 44 37 29 24 11 12 91 99 91 87 89 80 84 55 63 79 64 51 29 47 75 54 71 74 68 44 30 32 42 47 68 77 69 67 58 39 40 100 64 65 96 64 35 47 45 41
49 59 65 60 46 44 38 26 11 18 95 85 87 63 89 95 88 90 66 96 71 46 39 40 82 63 58 59 60 43 31 28 35 39 45 70 92 73 64 42 93 91 48 93 74 57 48 42 18
39 53 54 58 50 38 44 44 31 19 28 99 82 75 73 92 97 74 88 85 64 73 62 33 54 79 56 43 92 82 47 32 30 41 54 51 100 82 100 97 55 62 59 75 69 58 51 38 26
36 46 52 49 53 38 37 59 42 35 25 34 82 77 79 88 100 79 47 60 85 95 94 69 27 59 73 48 53 94 96 75 51 37 36 48 61 90 96 100 98 65 61 70 40 48 54 40 32
38 37 41 44 47 48 39 90 50 37 33 28 26 38 65 89 96 100 100 99 87 98 100 80 21 51 63 56 50 46 52 92 96 83 74 33 34 46 65 98 93 88 65 51 35 36 35 36 33
42 56 65 44 47 48 49 86 75 50 39 34 33 32 32 56 76 52 68 90 98 82 96 60 24 23 62 63 55 49 40 46 55 81 93 91 51 34 38 50 71 87 90 91 53 38 28 31 24
41 40 39 62 85 64 58 79 100 68 50 48 42 48 36 33 35 49 27 19 47 72 67 63 43 18 27 68 60 54 40 45 62 71 71 100 98 54 88 47 35 50 65 78 83 48 40 42 32
56 43 40 36 58 87 90 74 100 70 58 59 46 51 46 35 27 26 14 13 11 9 17 49 42 25 27 52 64 48 48 37 50 68 92 87 100 60 57 64 75 55 33 42 59 63 57 63 51
47 40 46 47 39 48 57 91 97 95 85 71 54 50 59 46 32 27 19 12 10 10 17 46 47 26 23 34 48 51 53 49 47 63 78 72 100 100 34 30 34 54 38 40 50 52 41 58 80
52 53 52 44 39 35 41 96 59 79 86 80 71 67 65 54 32 29 27 12 10 11 42 46 45 27 22 22 25 54 58 43 37 44 76 73 97 100 99 99 53 47 54 52 38 57 66 69 86

GFSSGP_250_rhum_165.txt.gz
RH
100 56 32 25 30 33 41 48 61 55 50 53 40 31 23 20 14 23 31 54 46 55 39 100 100 100 74 51 94 88 87 83 57 47 41 32 38 24 20 21 24 23 21 26 30 28 38 46 40
94 70 39 40 42 55 47 47 36 42 50 55 45 34 26 20 15 24 21 58 59 62 41 96 100 100 92 59 79 96 100 82 53 49 44 32 38 24 19 24 20 21 22 33 35 38 45 36 41
12 76 79 72 46 56 54 44 51 47 55 51 50 35 35 22 16 22 22 40 99 91 43 48 100 100 100 73 97 94 83 82 71 68 50 42 35 21 23 28 25 20 26 48 44 41 42 38 43
12 10 18 46 36 48 20 39 42 48 49 61 50 42 40 28 23 25 21 21 66 99 89 42 98 100 100 100 94 84 100 62 65 94 49 43 24 25 41 22 21 34 31 40 46 32 33 45 42
17 15 14 14 13 14 13 22 17 34 48 76 45 42 46 42 26 38 45 57 54 68 92 88 38 90 100 91 92 90 79 53 100 62 70 52 39 29 29 25 21 26 25 33 36 28 35 38 46
19 17 16 16 16 14 13 12 14 29 48 60 50 43 51 57 34 39 48 44 61 44 60 100 95 52 92 85 100 91 51 76 89 57 75 80 43 38 26 24 20 20 28 34 29 29 39 43 46
20 18 16 16 16 14 13 12 12 19 34 54 55 34 54 65 43 47 52 58 52 62 84 100 96 73 99 100 96 71 54 75 85 72 76 61 66 30 29 28 20 20 30 34 29 39 53 57 59
16 16 17 14 14 13 13 12 12 21 55 63 60 23 52 74 50 51 66 65 56 78 99 100 63 56 99 100 100 86 68 98 77 63 96 82 51 41 32 28 20 22 31 39 39 47 74 76 77
16 16 16 14 13 13 12 12 12 17 72 67 64 20 48 69 50 46 71 72 57 74 85 100 92 64 99 100 99 80 78 100 96 56 100 77 50 37 33 25 21 22 27 49 65 73 88 98 96
12 12 12 12 12 12 12 12 12 17 67 63 67 25 44 54 58 40 63 67 56 54 64 98 100 99 78 88 86 100 100 94 94 73 95 80 85 39 33 29 22 24 31 61 57 68 69 58 98
10 10 10 10 11 11 12 12 14 17 63 62 56 28 32 47 79 35 58 48 42 57 52 83 79 93 100 93 98 97 92 100 100 79 86 81 72 37 37 38 23 24 30 58 45 78 64 64 88
10 9 9 9 10 10 10 11 12 38 87 76 70 48 32 50 65 36 50 51 48 54 57 66 78 83 94 100 100 100 99 99 100 57 100 75 90 49 32 35 24 25 28 53 56 64 59 67 65
10 10 10 10 9 10 10 11 17 47 68 65 53 62 52 65 49 57 39 54 63 60 71 71 88 91 100 100 89 83 89 100 74 69 85 64 78 83 38 39 36 26 30 46 61 71 61 62 74
11 10 9 9 9 10 10 11 13 19 61 73 58 73 56 59 62 57 41 69 70 72 66 84 67 67 94 100 99 94 82 100 98 100 59 50 40 71 79 56 44 32 29 36 52 71 47 50 62
11 11 11 10 9 12 50 60 37 78 75 63 68 91 50 57 63 68 78 43 63 73 77 69 82 80 92 62 100 100 78 97 90 72 62 51 47 47 55 78 54 34 28 30 48 69 46 40 54
11 11 11 12 11 19 29 100 100 92 58 74 81 100 59 49 60 70 53 79 35 48 57 78 63 78 79 71 92 67 89 95 98 71 48 45 34 32 47 84 65 56 32 25 26 33 37 36 49
32 28 14 12 12 20 75 73 82 90 91 81 81 100 86 63 85 49 49 52 72 34 28 41 57 43 57 79 82 61 43 81 90 99 46 28 27 26 35 93 69 67 56 33 26 22 23 32 47
35 34 29 26 12 11 75 100 92 64 70 86 91 94 81 76 70 55 63 46 71 66 38 31 40 49 40 48 96 85 47 55 61 98 94 47 24 26 23 62 82 58 54 48 43 32 22 24 39
46 46 45 37 31 21 11 24 100 98 54 82 82 100 81 63 76 79 72 47 49 86 50 50 27 31 45 59 51 86 100 50 49 50 68 78 25 27 40 55 62 44 67 71 47 34 35 23 24
48 51 49 51 52 41 27 12 17 84 95 60 55 98 90 100 79 80 84 87 52 60 87 74 75 36 26 31 62 61 68 79 36 37 48 76 78 71 54 52 74 40 54 72 56 30 36 31 22
54 59 57 56 54 59 43 34 24 13 76 100 84 89 96 92 100 99 68 80 73 58 49 84 87 84 44 32 34 66 67 89 96 66 57 58 66 77 64 59 78 54 57 47 57 36 48 41 42
43 56 53 52 53 52 42 50 43 30 12 56 100 100 100 100 100 91 65 69 75 80 51 45 82 88 63 38 32 32 32 35 73 72 62 66 62 72 61 52 53 42 37 48 65 58 55 47 53
41 50 47 50 49 47 49 42 47 45 31 16 49 91 98 99 100 97 71 56 53 64 54 70 53 89 72 58 58 47 33 27 27 40 59 52 82 82 62 49 47 40 36 56 52 71 71 46 43
45 47 48 44 44 38 43 53 50 39 35 28 21 62 68 74 86 100 100 87 72 64 52 54 73 42 87 65 57 81 81 62 33 26 25 28 34 44 77 77 67 62 59 48 48 35 66 42 32
46 52 69 54 42 38 36 51 40 37 37 36 32 26 64 77 72 83 100 100 91 59 58 62 69 95 43 94 63 47 46 84 77 68 62 40 31 36 56 100 99 92 100 66 40 39 38 36 34
47 48 49 48 61 60 42 53 32 47 37 40 37 33 28 68 69 66 93 100 99 75 53 67 57 64 50 44 75 55 34 38 67 78 87 99 96 57 36 41 65 93 94 100 81 68 50 38 33
58 55 49 49 54 43 54 79 64 39 44 46 40 36 31 29 26 44 51 84 92 100 80 69 96 92 54 21 53 61 45 29 47 66 82 100 100 100 54 52 48 46 48 82 100 84 65 53 44
53 54 53 49 58 54 53 52 98 74 60 56 47 45 42 37 33 30 32 45 72 53 34 70 71 72 66 44 20 65 51 36 34 44 80 99 100 100 100 68 84 90 59 39 59 84 87 80 68
42 43 44 50 53 61 43 50 42 44 70 80 63 62 60 46 40 35 30 31 39 50 36 16 16 21 24 49 34 25 55 50 40 44 49 90 100 100 100 49 36 34 58 46 28 35 54 71 73
40 42 47 50 48 51 52 41 32 40 39 59 65 72 74 58 53 44 38 34 24 28 28 21 12 9 12 47 43 26 40 64 57 54 56 49 74 93 100 100 92 43 40 50 53 30 26 36 45

GFSSGP_250_rhum_168.txt.gz
RH
52 36 33 26 33 36 36 45 36 33 37 40 45 44 25 19 15 48 41 30 27 30 98 97 100 100 100 97 93 48 99 98 76 53 43 33 30 32 27 27 34 22 38 37 28 29 36 43 46
74 77 70 46 38 41 38 34 26 22 33 41 47 46 21 26 17 18 21 28 38 29 58 100 100 96 100 81 42 73 100 99 66 58 46 39 40 23 39 28 24 29 40 33 23 27 34 45 58
10 12 25 38 41 45 30 23 17 23 28 44 45 45 22 35 26 27 20 27 50 36 41 95 100 100 100 89 52 69 99 92 74 66 60 52 36 26 40 23 27 28 40 24 25 27 32 48 69
12 11 12 12 14 14 13 13 14 19 40 49 44 49 22 44 32 39 36 22 64 87 54 44 94 96 98 100 52 64 90 82 79 98 87 43 38 32 41 23 30 38 25 22 28 32 39 59 79
18 17 16 16 16 15 15 14 13 13 20 34 49 52 27 48 36 45 48 59 66 94 67 40 100 100 100 93 68 58 90 84 71 79 74 45 60 54 32 23 25 28 32 35 37 35 41 55 64
19 19 22 19 17 15 15 14 13 12 15 30 60 48 33 52 41 47 56 54 59 92 82 44 100 100 74 81 99 87 74 72 100 79 84 66 76 59 25 19 27 30 50 51 42 39 41 61 67
18 17 17 16 17 16 14 13 13 12 15 34 64 40 44 56 40 41 52 59 95 69 70 96 68 98 100 80 100 100 83 99 86 92 69 77 65 38 27 19 32 35 37 69 82 50 32 49 65
16 15 15 16 16 16 15 13 12 12 14 43 53 38 49 55 51 38 53 47 61 56 75 100 100 84 95 92 100 100 75 97 74 100 81 76 55 43 26 20 33 40 34 54 56 91 42 32 54
14 14 14 14 14 14 14 12 12 12 13 46 55 32 39 47 60 37 51 54 63 88 100 97 100 100 95 95 95 97 79 100 91 87 100 75 48 42 22 21 28 50 64 51 45 69 40 47 90
13 12 11 11 12 12 12 11 11 11 13 37 65 35 35 42 60 33 45 49 58 76 80 67 59 95 100 100 100 81 98 100 98 99 88 100 94 37 25 23 28 61 45 47 42 59 47 59 96
10 9 9 9 9 9 10 10 10 11 12 43 76 45 34 44 58 31 43 40 45 56 63 79 47 90 100 100 100 87 100 100 85 94 99 92 63 32 33 22 28 62 50 52 46 49 37 56 96
10 10 10 9 9 9 9 10 10 11 17 60 91 55 47 54 54 29 47 46 54 52 52 79 60 95 100 100 89 82 93 100 100 95 99 72 64 32 34 22 28 47 51 56 59 51 31 56 66
10 10 10 10 9 9 9 10 10 11 29 66 79 63 57 65 54 48 49 44 56 52 60 61 93 97 88 78 96 100 89 100 94 100 100 92 83 44 34 29 26 33 52 66 72 54 39 45 62
11 11 10 10 10 9 9 10 11 28 66 36 76 65 67 54 62 80 42 68 66 74 66 64 73 92 95 99 100 100 100 78 96 100 92 81 73 68 43 38 31 29 47 57 72 44 50 38 49
10 10 10 10 9 9 9 19 15 41 28 72 82 98 75 47 72 72 80 55 72 60 71 66 64 93 100 100 100 100 100 100 86 100 80 54 46 56 84 72 40 30 32 42 58 52 38 37 43
16 14 11 10 10 10 13 84 100 71 74 100 72 74 100 55 68 57 63 67 67 64 58 66 56 64 91 100 100 99 68 91 65 82 74 51 48 34 67 71 53 32 29 34 44 43 30 37 38
33 31 28 23 11 11 18 46 100 100 96 99 90 79 95 81 72 70 48 66 61 47 60 64 78 97 83 84 100 100 68 75 100 67 80 51 38 30 74 76 67 53 30 26 25 24 24 30 40
44 39 32 30 27 12 36 65 65 77 90 91 73 75 98 100 85 81 47 50 100 52 33 45 54 56 74 66 83 88 69 69 73 73 65 47 39 25 38 81 83 66 54 47 36 27 22 28 36
50 52 45 44 38 31 17 23 96 93 60 94 79 72 87 90 94 80 65 36 72 84 52 31 44 46 53 76 68 63 61 43 58 84 78 40 27 26 19 21 53 53 55 50 38 33 30 25 28
58 63 56 49 43 32 32 24 12 70 83 64 87 71 97 92 70 90 89 55 48 86 84 61 35 35 30 38 50 59 67 71 45 61 92 100 93 28 20 20 45 68 42 62 63 28 34 27 22
52 62 60 54 53 42 37 31 26 13 27 81 56 61 67 94 97 83 100 75 40 66 77 84 90 61 31 33 34 43 48 61 86 51 52 57 73 65 51 61 46 64 50 40 57 61 52 44 30
49 56 57 53 50 46 43 40 36 28 15 32 100 100 75 92 100 100 100 100 53 50 79 62 95 89 60 29 30 30 50 54 62 64 45 33 34 69 54 68 66 59 65 42 47 59 55 65 69
48 53 55 53 47 42 46 45 44 34 26 19 20 99 96 67 87 100 100 100 95 76 63 55 65 94 63 66 57 42 35 48 60 62 88 68 42 40 49 61 62 63 67 56 45 55 48 52 56
58 62 57 55 46 39 44 40 43 36 32 26 22 16 61 100 87 97 100 96 99 100 81 63 48 58 94 70 68 71 88 70 30 30 36 82 73 54 55 55 74 58 68 57 40 35 53 50 57
63 59 50 45 42 37 40 37 32 37 39 33 27 25 17 48 96 90 100 100 100 87 89 86 48 51 44 93 87 78 94 78 61 39 29 30 49 71 63 64 74 61 58 54 53 42 37 41 34
63 53 54 54 49 42 43 41 28 34 32 37 37 29 24 22 70 79 76 77 96 100 96 88 75 59 72 88 53 88 78 59 70 78 70 73 38 29 28 27 32 39 65 76 72 70 74 50 40
56 59 58 62 63 61 72 66 46 29 41 32 34 39 36 26 25 52 74 70 63 75 98 100 69 70 64 80 73 35 75 60 53 46 70 100 100 100 100 86 38 34 42 59 62 83 81 74 63
57 56 56 53 59 62 65 84 56 33 26 35 38 34 37 39 30 26 38 66 60 48 74 94 82 61 60 74 86 74 35 69 61 59 50 68 91 96 99 93 69 47 32 32 49 64 84 84 63
44 43 49 47 51 54 58 82 55 42 42 40 37 40 43 46 41 37 30 28 36 42 49 74 97 92 76 80 78 80 38 36 78 71 62 44 54 96 99 100 100 59 44 56 56 35 36 52 84
47 49 48 42 40 37 39 82 42 63 56 48 39 38 40 49 49 42 39 36 30 29 31 36 65 67 43 64 55 56 59 42 46 100 91 68 52 55 52 78 100 100 77 53 37 41 38 28 51

GFSSGP_250_rhum_171.txt.gz
RH
58 50 40 32 40 39 44 42 26 14 17 21 47 51 39 30 30 44 16 44 34 89 88 100 75 100 100 100 100 74 92 62 72 53 50 43 34 29 30 28 43 45 29 22 30 42 60 59 48
71 52 41 75 69 54 34 26 14 14 17 25 53 48 40 31 24 18 20 20 23 46 100 100 65 100 100 100 100 94 49 54 61 62 56 68 52 29 36 25 42 38 26 24 35 51 62 44 70
10 12 13 12 14 20 15 14 14 13 13 21 30 46 44 30 25 19 27 19 20 31 94 90 100 100 100 100 83 55 43 81 82 66 93 62 61 36 34 35 35 23 24 29 40 46 48 39 42
12 12 12 27 59 16 15 15 15 14 12 12 20 52 41 34 30 25 37 36 26 23 60 100 99 93 95 100 70 44 39 79 66 69 87 75 50 47 37 34 25 28 27 32 36 41 45 36 32
14 14 23 26 21 18 16 16 15 14 13 13 19 62 39 38 40 28 36 51 48 36 24 84 100 86 82 61 81 58 40 58 42 76 97 61 76 68 25 32 42 35 31 30 35 39 33 40 38
26 21 25 44 43 20 16 16 15 14 13 13 22 67 39 43 47 36 48 63 69 69 50 46 100 100 100 85 68 50 34 40 62 98 100 99 67 48 20 32 40 63 67 34 28 28 33 38 40
24 17 19 23 21 16 16 16 16 14 13 12 30 58 37 41 48 44 43 52 82 69 94 44 81 100 99 79 99 79 53 59 98 100 100 92 58 33 19 31 31 53 56 44 26 28 34 40 40
18 20 18 19 19 15 14 14 14 13 13 12 29 69 34 38 47 33 40 52 82 85 91 74 56 93 62 62 100 100 100 70 100 100 82 95 42 38 19 34 32 38 50 42 32 27 58 51 41
15 15 15 15 14 13 11 22 17 12 12 12 40 67 36 38 45 34 36 58 61 70 90 100 100 100 83 74 100 100 100 100 100 100 78 76 44 25 18 35 39 50 53 38 33 46 74 36 33
14 14 13 12 12 11 10 10 13 11 11 12 31 70 42 38 48 29 30 62 68 70 77 83 79 100 100 100 96 100 100 100 99 98 100 98 81 23 19 30 45 45 53 41 28 49 69 78 80
11 10 10 9 9 8 8 9 9 10 11 13 67 54 60 40 50 37 32 42 51 74 73 57 100 100 99 100 100 100 98 100 86 100 100 100 52 25 21 26 41 52 52 52 26 50 76 99 99
9 9 9 9 9 8 8 9 14 16 14 14 99 85 74 49 47 43 37 44 46 49 48 66 91 97 99 99 100 100 100 100 81 100 100 100 36 29 22 26 36 48 57 62 32 47 57 92 85
10 10 10 9 9 8 8 9 10 11 11 16 100 100 78 62 52 48 54 39 43 42 61 65 48 100 100 94 100 95 100 78 76 98 88 89 46 33 24 22 27 46 48 53 42 38 48 89 72
10 10 10 9 9 8 8 8 10 13 11 23 96 100 95 66 60 68 55 50 50 54 57 68 79 100 100 100 96 74 70 100 93 100 100 91 54 41 34 26 25 32 49 58 41 37 42 66 57
10 10 10 9 9 9 50 100 12 14 29 100 72 97 100 58 77 66 76 58 61 65 68 74 91 100 100 68 100 100 93 100 99 76 100 80 76 64 73 44 29 29 44 51 47 33 35 45 80
13 16 20 18 10 10 13 95 26 17 99 100 44 100 100 65 83 78 60 54 49 54 66 62 68 68 74 100 100 100 100 99 98 78 100 78 59 44 71 60 34 29 31 36 36 28 32 38 57
30 31 28 28 26 13 10 10 100 100 79 71 100 88 99 100 64 83 60 76 51 55 51 58 66 88 96 100 100 100 96 100 86 69 100 69 57 43 57 69 56 31 29 27 26 24 28 32 50
39 39 38 35 29 24 12 13 34 100 99 54 100 99 67 93 98 88 62 55 94 46 57 51 50 68 91 100 100 77 87 80 66 67 81 88 67 38 65 78 71 66 42 40 33 28 25 34 42
47 47 43 45 38 32 24 12 72 92 53 88 96 83 69 44 100 78 76 48 100 48 38 55 51 45 76 100 96 86 100 52 57 94 98 70 55 42 30 67 70 55 64 62 40 37 34 32 36
60 57 44 45 41 40 37 27 12 27 100 47 51 60 85 64 77 92 83 66 56 72 45 39 50 56 68 83 72 78 86 79 53 69 68 56 64 51 30 28 24 37 64 59 51 36 34 33 28
56 57 44 44 43 39 41 41 33 17 18 98 62 70 81 84 100 85 75 92 46 73 62 58 33 49 51 59 77 69 54 57 54 47 48 75 97 83 52 32 26 30 38 56 70 38 44 32 31
62 63 49 43 41 37 38 40 36 37 24 15 71 56 53 52 84 100 88 100 82 44 76 91 92 53 37 44 39 43 51 42 46 52 46 37 70 95 97 56 51 59 48 49 71 56 57 44 33
58 59 57 50 44 41 39 36 38 34 32 29 14 68 100 70 52 94 96 100 100 73 52 59 96 87 47 28 36 40 38 32 40 53 60 69 63 60 59 74 70 66 62 49 42 41 52 49 48
53 57 78 76 62 48 38 34 33 32 35 32 28 15 44 100 92 68 93 98 100 100 80 65 50 93 76 49 34 38 39 36 43 50 53 65 68 64 63 41 65 61 62 60 51 50 40 40 43
90 93 96 92 72 59 47 41 30 32 32 30 33 27 18 20 74 100 76 78 89 99 98 91 96 72 80 83 60 64 84 100 77 38 30 33 48 63 77 67 42 48 45 53 51 47 40 39 32
76 72 75 64 71 61 57 50 37 37 34 31 29 32 31 23 15 19 91 94 81 89 86 78 78 95 95 70 92 72 75 91 95 68 61 52 30 29 48 63 63 53 51 55 54 47 36 30 34
59 64 61 70 66 65 65 62 58 43 41 33 29 31 31 35 28 22 17 46 100 97 100 92 81 66 79 85 73 77 83 94 81 85 93 73 86 68 45 41 52 72 51 38 43 52 46 42 41
60 85 72 64 60 60 68 69 57 41 42 42 36 28 33 34 35 34 25 22 43 80 84 88 100 89 69 74 82 88 100 73 85 79 78 70 70 100 100 100 100 100 78 56 44 49 49 45 49
55 52 49 49 50 54 69 77 66 54 59 48 47 46 36 34 35 37 40 30 23 29 49 70 79 90 72 67 74 70 96 93 48 71 79 84 65 64 68 100 94 99 100 85 78 88 78 61 68
76 71 79 71 69 56 47 53 49 38 38 40 45 42 44 43 36 33 40 44 34 26 26 40 63 61 89 97 57 64 60 70 86 42 48 68 69 76 59 78 67 71 80 86 100 98 54 44 52